TimeCDT,TemperatureF,Dew PointF,Humidity,Sea Level PressureIn,VisibilityMPH,Wind Direction,Wind SpeedMPH,Gust SpeedMPH,PrecipitationIn,Events,Conditions,WindDirDegrees,DateUTC
12:53 AM,71.1,66.9,87,30.30,10.0,Calm,Calm,-,N/A,,Clear,0,2013-07-16 05:53:00
1:53 AM,69.1,66.9,93,30.30,10.0,Calm,Calm,-,N/A,,Clear,0,2013-07-16 06:53:00
2:53 AM,71.1,66.0,84,30.29,10.0,Calm,Calm,-,N/A,,Clear,0,2013-07-16 07:53:00
3:53 AM,68.0,64.9,90,30.29,10.0,Calm,Calm,-,N/A,,Clear,0,2013-07-16 08:53:00
4:53 AM,68.0,64.9,90,30.30,10.0,Calm,Calm,-,N/A,,Clear,0,2013-07-16 09:53:00
5:53 AM,66.9,64.9,93,30.31,9.0,Calm,Calm,-,N/A,,Clear,0,2013-07-16 10:53:00
6:53 AM,73.0,66.9,81,30.31,10.0,Calm,Calm,-,N/A,,Clear,0,2013-07-16 11:53:00
7:53 AM,77.0,68.0,74,30.34,10.0,Calm,Calm,-,N/A,,Clear,0,2013-07-16 12:53:00
8:53 AM,78.1,66.9,68,30.35,10.0,SE,4.6,-,N/A,,Clear,140,2013-07-16 13:53:00
9:53 AM,81.0,66.9,62,30.35,10.0,Calm,Calm,-,N/A,,Clear,0,2013-07-16 14:53:00
10:53 AM,82.0,66.0,58,30.34,10.0,ENE,5.8,-,N/A,,Clear,70,2013-07-16 15:53:00
11:53 AM,82.9,66.0,56,30.33,10.0,East,5.8,-,N/A,,Mostly Cloudy,90,2013-07-16 16:53:00
12:53 PM,82.9,68.0,60,30.32,10.0,NNE,4.6,-,N/A,,Overcast,30,2013-07-16 17:53:00
1:53 PM,82.9,66.9,58,30.30,10.0,East,3.5,-,N/A,,Overcast,80,2013-07-16 18:53:00
2:53 PM,84.9,66.9,55,30.28,10.0,East,5.8,-,N/A,,Mostly Cloudy,80,2013-07-16 19:53:00
3:53 PM,84.9,66.9,55,30.28,10.0,NNE,5.8,-,N/A,,Overcast,30,2013-07-16 20:53:00
4:53 PM,84.9,66.9,55,30.27,10.0,ENE,4.6,-,N/A,,Partly Cloudy,60,2013-07-16 21:53:00
5:53 PM,84.9,68.0,57,30.27,10.0,NE,4.6,-,N/A,,Clear,40,2013-07-16 22:53:00
6:53 PM,82.9,68.0,60,30.27,10.0,NE,5.8,-,N/A,,Clear,40,2013-07-16 23:53:00
7:53 PM,79.0,69.1,72,30.27,10.0,NNE,3.5,-,N/A,,Clear,30,2013-07-17 00:53:00
8:53 PM,73.9,69.1,85,30.29,10.0,Calm,Calm,-,N/A,,Clear,0,2013-07-17 01:53:00
9:53 PM,73.0,69.1,87,30.30,10.0,Calm,Calm,-,N/A,,Clear,0,2013-07-17 02:53:00
10:53 PM,71.1,68.0,90,30.30,10.0,Calm,Calm,-,N/A,,Clear,0,2013-07-17 03:53:00
11:53 PM,70.0,68.0,93,30.30,10.0,Calm,Calm,-,N/A,,Clear,0,2013-07-17 04:53:00